Oakland, CA

1:15 PM PST on December 06, 2019 (GMT -0800)
Metro Oakland International

Weather History for KOAK - October, 2019

Change the Weather History Date:

Sunday, October 6, 2019

  Actual Average Record
Temperature  
Mean Temperature 67 °F 62 °F  
Max Temperature 83 °F 72 °F 89 °F (1972)
Min Temperature 50 °F 53 °F 45 °F (2009)
Degree Days  
Heating Degree Days 0 4  
Month to date heating degree days 21 19  
Since 1 July heating degree days 51 219  
Cooling Degree Days 2 1  
Month to date cooling degree days 2 6  
Year to date cooling degree days 366 131  
Growing Degree Days 16 (Base 50)    
Moisture  
Dew Point 48 °F    
Average Humidity 52    
Maximum Humidity 68    
Minimum Humidity 35    
Precipitation  
Precipitation 0.00 in 0.03 in 0.40 in (2011)
Month to date precipitation 0.00 0.11  
Year to date precipitation 15.94 13.61  
Sea Level Pressure  
Sea Level Pressure 30.01 in    
Wind  
Wind Speed 4 mph (West)    
Max Wind Speed 13 mph    
Max Gust Speed 16 mph    
Visibility 10 miles    
Events      
T = Trace of Precipitation, MM = Missing Value Source: NWS Daily Summary

Daily Weather History Graph

Daily Weather History Graph

Search for Another Location

Airport or City:

Astronomy

Oct. 06, 2019 Rise Set
Actual Time 7:08 AM PDT 6:44 PM PDT
Civil Twilight 6:42 AM PDT 7:10 PM PDT
Nautical Twilight 6:12 AM PDT 7:41 PM PDT
Astronomical Twilight 5:41 AM PDT 8:11 PM PDT
Moon 3:19 PM PDT 12:20 AM PDT
Length of Visible Light 12h 28m
Length of Day
11h 35m
First Quarter, 61% of the Moon is Illuminated
Oct 6
First Quarter
Oct 13
Full
Oct 21
Last Quarter
Oct 27
New
Nov 4
First Quarter

Hourly Weather History & Observations

Time (PDT) Temp. Dew Point Humidity Pressure Visibility Wind Dir Wind Speed Gust Speed Precip Events Conditions
12:53 AM 55.9 °F 45.0 °F 67% 30.01 in 10.0 mi Calm Calm - N/A   Clear
1:53 AM 55.0 °F 44.1 °F 67% 30.02 in 10.0 mi Calm Calm - N/A   Clear
2:53 AM 57.0 °F 42.1 °F 57% 30.01 in 10.0 mi Calm Calm - N/A   Clear
3:53 AM 55.0 °F 42.1 °F 62% 30.00 in 10.0 mi Calm Calm - N/A   Clear
4:53 AM 53.1 °F 41.0 °F 64% 30.01 in 10.0 mi NE 3.5 mph - N/A   Clear
5:53 AM 53.1 °F 41.0 °F 64% 30.01 in 10.0 mi Calm Calm - N/A   Clear
6:53 AM 52.0 °F 41.0 °F 66% 30.04 in 10.0 mi Variable 3.5 mph - N/A   Partly Cloudy
7:53 AM 55.9 °F 44.1 °F 64% 30.04 in 10.0 mi Calm Calm - N/A   Partly Cloudy
8:53 AM 64.9 °F 48.9 °F 56% 30.05 in 10.0 mi South 4.6 mph - N/A   Partly Cloudy
9:53 AM 70.0 °F 50.0 °F 49% 30.06 in 10.0 mi South 6.9 mph - N/A   Partly Cloudy
10:53 AM 70.0 °F 52.0 °F 53% 30.06 in 10.0 mi West 4.6 mph - N/A   Partly Cloudy
11:53 AM 73.0 °F 52.0 °F 48% 30.05 in 10.0 mi West 6.9 mph - N/A   Partly Cloudy
12:53 PM 73.9 °F 48.9 °F 41% 30.04 in 10.0 mi West 9.2 mph - N/A   Scattered Clouds
1:53 PM 75.0 °F 48.0 °F 38% 30.01 in 10.0 mi West 8.1 mph - N/A   Mostly Cloudy
2:53 PM 78.1 °F 52.0 °F 40% 29.99 in 10.0 mi WSW 5.8 mph - N/A   Scattered Clouds
3:53 PM 80.1 °F 52.0 °F 38% 29.98 in 10.0 mi West 8.1 mph - N/A   Scattered Clouds
4:53 PM 78.8 °F 48.2 °F 34% 29.96 in 10.0 mi NW 10.4 mph - N/A   Scattered Clouds
5:53 PM 75.2 °F 53.6 °F 47% 29.96 in 10.0 mi WNW 6.9 mph - N/A   Mostly Cloudy
6:53 PM 71.6 °F 46.4 °F 41% 29.97 in 10.0 mi WNW 10.4 mph - N/A   Scattered Clouds
7:53 PM 69.1 °F 48.9 °F 49% 29.97 in 10.0 mi WNW 3.5 mph - N/A   Mostly Cloudy
8:53 PM 68.0 °F 55.0 °F 63% 29.99 in 10.0 mi Calm Calm - N/A   Mostly Cloudy
9:53 PM 66.9 °F 52.0 °F 59% 29.99 in 10.0 mi Calm Calm - N/A   Mostly Cloudy
10:53 PM 63.0 °F 48.0 °F 58% 29.99 in 10.0 mi Calm Calm - N/A   Mostly Cloudy
11:53 PM 66.0 °F 55.0 °F 68% 29.99 in 10.0 mi SW 4.6 mph - N/A   Mostly Cloudy